TimeEDT,TemperatureF,Dew PointF,Humidity,Sea Level PressureIn,VisibilityMPH,Wind Direction,Wind SpeedMPH,Gust SpeedMPH,PrecipitationIn,Events,Conditions,WindDirDegrees,DateUTC
12:53 AM,57.0,53.1,87,30.28,7.0,Calm,Calm,-,N/A,,Clear,0,2012-09-14 04:53:00
1:53 AM,57.0,53.1,87,30.29,8.0,Calm,Calm,-,N/A,,Clear,0,2012-09-14 05:53:00
2:53 AM,55.0,52.0,89,30.28,8.0,Calm,Calm,-,N/A,,Clear,0,2012-09-14 06:53:00
3:53 AM,53.1,51.1,93,30.27,3.0,East,3.5,-,N/A,,Clear,90,2012-09-14 07:53:00
4:11 AM,53.6,50.0,88,30.27,2.5,Calm,Calm,-,N/A,,Clear,0,2012-09-14 08:11:00
4:29 AM,53.6,51.8,94,30.27,3.0,Calm,Calm,-,N/A,,Clear,0,2012-09-14 08:29:00
4:53 AM,54.0,52.0,93,30.27,3.0,Calm,Calm,-,N/A,,Clear,0,2012-09-14 08:53:00
5:53 AM,53.1,51.1,93,30.26,3.0,Calm,Calm,-,N/A,,Clear,0,2012-09-14 09:53:00
6:53 AM,52.0,50.0,93,30.26,5.0,Calm,Calm,-,N/A,,Clear,0,2012-09-14 10:53:00
7:53 AM,55.0,53.1,93,30.25,5.0,Calm,Calm,-,N/A,,Partly Cloudy,0,2012-09-14 11:53:00
8:53 AM,61.0,57.9,90,30.25,6.0,Calm,Calm,-,N/A,,Partly Cloudy,0,2012-09-14 12:53:00
9:53 AM,66.9,60.1,79,30.25,6.0,Calm,Calm,-,N/A,,Haze,0,2012-09-14 13:53:00
10:53 AM,73.0,59.0,61,30.23,10.0,Calm,Calm,-,N/A,,Clear,0,2012-09-14 14:53:00
11:53 AM,75.0,57.0,53,30.21,10.0,South,4.6,-,N/A,,Clear,190,2012-09-14 15:53:00
12:53 PM,77.0,55.9,48,30.20,10.0,Calm,Calm,-,N/A,,Clear,0,2012-09-14 16:53:00
1:53 PM,78.1,55.9,46,30.17,10.0,WSW,9.2,-,N/A,,Clear,250,2012-09-14 17:53:00
2:53 PM,79.0,55.0,44,30.16,10.0,WSW,9.2,-,N/A,,Clear,240,2012-09-14 18:53:00
3:53 PM,79.0,55.0,44,30.14,10.0,West,3.5,-,N/A,,Clear,280,2012-09-14 19:53:00
4:53 PM,79.0,57.0,47,30.12,10.0,Variable,3.5,-,N/A,,Clear,0,2012-09-14 20:53:00
5:53 PM,75.9,55.9,50,30.12,10.0,South,9.2,-,N/A,,Clear,170,2012-09-14 21:53:00
6:53 PM,73.9,54.0,50,30.12,10.0,South,4.6,-,N/A,,Clear,190,2012-09-14 22:53:00
7:53 PM,71.1,55.0,57,30.12,10.0,South,4.6,-,N/A,,Clear,190,2012-09-14 23:53:00
8:53 PM,69.1,57.9,68,30.12,10.0,South,6.9,-,N/A,,Clear,180,2012-09-15 00:53:00
9:53 PM,68.0,61.0,78,30.11,10.0,SSW,3.5,-,N/A,,Clear,200,2012-09-15 01:53:00
10:53 PM,64.9,60.1,84,30.11,10.0,Calm,Calm,-,N/A,,Clear,0,2012-09-15 02:53:00
11:53 PM,63.0,60.1,90,30.12,10.0,WNW,4.6,-,N/A,,Scattered Clouds,300,2012-09-15 03:53:00